Weather History for LHSN - February, 2013

Change the Weather History Date:

Monday, February 18, 2013

  Actual Average Record
Temperature  
Mean Temperature 32 °F -  
Max Temperature 35 °F - - ()
Min Temperature 28 °F - - ()
Degree Days  
Heating Degree Days 34    
Moisture  
Dew Point 25 °F    
Average Humidity 77    
Maximum Humidity 86    
Minimum Humidity 69    
Precipitation  
Precipitation 0.00 in - - ()
Sea Level Pressure  
Sea Level Pressure 30.14 in    
Wind  
Wind Speed 6 mph ()    
Max Wind Speed 9 mph    
Max Gust Speed -    
Visibility 6.2 miles    
Events      
T = Trace of Precipitation, MM = Missing Value Source: Averaged Metar Reports

Daily Weather History Graph

Daily Weather History Graph

Search for Another Location

Airport or City:

Trip Planner

Search our weather history database for the weather conditions in past years. The results will help you decide how hot, cold, wet, or windy it might be!

Date:

Astronomy

Feb. 18, 2013 Rise Set
Actual Time 6:38 AM CET 5:07 PM CET
Civil Twilight 6:07 AM CET 5:39 PM CET
Nautical Twilight 5:32 AM CET 6:14 PM CET
Astronomical Twilight 4:56 AM CET 6:50 PM CET
Moon 10:29 AM CET (2/18) 1:12 AM CET (2/18)
Length of Visible Light 11h 31m
Length of Day
10h 29m
First Quarter, 56% of the Moon is Illuminated
Feb 18
First Quarter
Feb 25
Full
Mar 4
Last Quarter
Mar 11
New
Mar 19
First Quarter

Hourly Weather History & Observations

Time (CET) Temp. Windchill Dew Point Humidity Pressure Visibility Wind Dir Wind Speed Gust Speed Precip Events Conditions
12:15 AM 32.0 °F 25.7 °F 24.8 °F 75% 30.18 in 6.2 mi East 6.7 mph - N/A   Overcast
12:45 AM 32.0 °F 25.7 °F 24.8 °F 75% 30.18 in 6.2 mi East 6.7 mph - N/A   Overcast
1:15 AM 32.0 °F 24.3 °F 24.8 °F 75% 30.18 in 6.2 mi East 8.9 mph - N/A   Overcast
1:45 AM 32.0 °F 25.7 °F 24.8 °F 75% 30.15 in 6.2 mi East 6.7 mph - N/A   Overcast
2:15 AM 30.2 °F 23.5 °F 24.8 °F 80% 30.15 in 6.2 mi East 6.7 mph - N/A   Overcast
2:45 AM 30.2 °F 23.5 °F 24.8 °F 80% 30.15 in 6.2 mi East 6.7 mph - N/A   Overcast
3:15 AM 30.2 °F 22.1 °F 23.0 °F 75% 30.15 in 6.2 mi East 8.9 mph - N/A   Overcast
3:45 AM 30.2 °F 22.1 °F 23.0 °F 75% 30.15 in 6.2 mi East 8.9 mph - N/A   Overcast
4:15 AM 28.4 °F 19.9 °F 24.8 °F 86% 30.15 in 6.2 mi East 8.9 mph - N/A   Mostly Cloudy
4:45 AM 28.4 °F 19.9 °F 23.0 °F 80% 30.15 in 6.2 mi East 8.9 mph - N/A   Mostly Cloudy
5:15 AM 28.4 °F 19.9 °F 23.0 °F 80% 30.15 in 6.2 mi East 8.9 mph - N/A   Mostly Cloudy
5:45 AM - - - N/A% - 6.2 mi East 8.9 mph - N/A   Overcast
6:15 AM 28.4 °F 21.4 °F 23.0 °F 80% 30.15 in - East 6.7 mph - N/A   Clear
6:45 AM 28.4 °F 21.4 °F 23.0 °F 80% 30.15 in - East 6.7 mph - N/A   Clear
7:15 AM 28.4 °F 21.4 °F 23.0 °F 80% 30.15 in 6.2 mi East 6.7 mph - N/A   Mostly Cloudy
7:45 AM 30.2 °F 23.5 °F 23.0 °F 75% 30.15 in 6.2 mi East 6.7 mph - N/A   Mostly Cloudy
8:15 AM 30.2 °F 23.5 °F 23.0 °F 75% 30.18 in 6.2 mi East 6.7 mph - N/A   Mostly Cloudy
8:45 AM - - - N/A% - 6.2 mi East 6.7 mph - N/A   Mostly Cloudy
9:15 AM 30.2 °F 25.5 °F 23.0 °F 75% 30.18 in 6.2 mi East 4.5 mph - N/A   Mostly Cloudy
9:45 AM 30.2 °F 25.5 °F 23.0 °F 75% 30.15 in 6.2 mi East 4.5 mph - N/A   Mostly Cloudy
10:15 AM 30.2 °F 25.5 °F 23.0 °F 75% 30.18 in 6.2 mi East 4.5 mph - N/A   Mostly Cloudy
10:45 AM 32.0 °F 27.6 °F 23.0 °F 69% 30.18 in 6.2 mi East 4.5 mph - N/A   Mostly Cloudy
11:15 AM 32.0 °F 27.6 °F 24.8 °F 75% 30.15 in 6.2 mi East 4.5 mph - N/A   Mostly Cloudy
11:45 AM - - - N/A% - 6.2 mi East 6.7 mph - N/A   Mostly Cloudy
12:15 PM 32.0 °F 25.7 °F 24.8 °F 75% 30.15 in 6.2 mi East 6.7 mph - N/A   Mostly Cloudy
12:45 PM 33.8 °F 29.7 °F 24.8 °F 70% 30.15 in 6.2 mi East 4.5 mph - N/A   Mostly Cloudy
1:15 PM 33.8 °F 29.7 °F 24.8 °F 70% 30.12 in 6.2 mi East 4.5 mph - N/A   Mostly Cloudy
1:45 PM 33.8 °F 29.7 °F 24.8 °F 70% 30.12 in 6.2 mi East 4.5 mph - N/A   Mostly Cloudy
2:15 PM 33.8 °F 29.7 °F 24.8 °F 70% 30.12 in 6.2 mi East 4.5 mph - N/A   Mostly Cloudy
2:45 PM - - - N/A% - 6.2 mi North 6.7 mph - N/A   Mostly Cloudy
3:15 PM 35.6 °F 31.8 °F 26.6 °F 70% 30.12 in 6.2 mi East 4.5 mph - N/A   Mostly Cloudy
3:45 PM 33.8 °F 29.7 °F 24.8 °F 70% 30.12 in 6.2 mi East 4.5 mph - N/A   Mostly Cloudy
4:15 PM 33.8 °F 29.7 °F 26.6 °F 75% 30.12 in 6.2 mi East 4.5 mph - N/A   Mostly Cloudy
4:45 PM 33.8 °F 29.7 °F 26.6 °F 75% 30.12 in 6.2 mi East 4.5 mph - N/A   Mostly Cloudy
5:15 PM 33.8 °F 29.7 °F 26.6 °F 75% 30.12 in 6.2 mi East 4.5 mph - N/A   Mostly Cloudy
5:45 PM 32.0 °F - 26.6 °F 80% 30.12 in 6.2 mi East 2.2 mph - N/A   Mostly Cloudy
6:15 PM 32.0 °F - 26.6 °F 80% 30.12 in 6.2 mi SE 2.2 mph - N/A   Mostly Cloudy
6:45 PM 32.0 °F - 26.6 °F 80% 30.12 in 6.2 mi SE 2.2 mph - N/A   Mostly Cloudy
7:15 PM 30.2 °F 25.5 °F 26.6 °F 86% 30.12 in 6.2 mi SE 4.5 mph - N/A   Mostly Cloudy
7:45 PM 30.2 °F 25.5 °F 26.6 °F 86% 30.09 in 6.2 mi SE 4.5 mph - N/A   Mostly Cloudy
8:15 PM 30.2 °F 25.5 °F 26.6 °F 86% 30.12 in 6.2 mi East 4.5 mph - N/A   Mostly Cloudy
8:45 PM - - - N/A% - 6.2 mi Variable 4.5 mph - N/A   Mostly Cloudy
9:15 PM 30.2 °F - 26.6 °F 86% 30.09 in 6.2 mi ESE 2.2 mph - N/A   Mostly Cloudy
9:45 PM 30.2 °F - 26.6 °F 86% 30.09 in 6.2 mi ESE 2.2 mph - N/A   Mostly Cloudy
10:15 PM 32.0 °F 27.6 °F 26.6 °F 80% 30.09 in 6.2 mi SE 4.5 mph - N/A   Mostly Cloudy
10:45 PM 32.0 °F - 26.6 °F 80% 30.09 in 6.2 mi SE 2.2 mph - N/A   Mostly Cloudy
11:15 PM 32.0 °F - 26.6 °F 80% 30.09 in 6.2 mi SW 2.2 mph - N/A   Mostly Cloudy
11:45 PM - - - N/A% - 5.0 mi North - - N/A   Mostly Cloudy